DW7285 Weather Reports


time (UTC)temp
F
wind
direction
speed
knots
gust
knots
rain 1hr
in
rain 24hr
in
rain mn
in
humidity
%
barometer
mb
20260504180017 63 236 0.0 0.9 0.02 0.05 0.04 86 1004.9
20260504174516 66 349 0.0 2.6 0.01 0.04 0.03 76 1005.1
20260504173015 67 218 0.0 3.5 0.00 0.03 0.02 69 1004.4
20260504171513 68 203 0.0 1.7 0.00 0.03 0.02 66 1004.8
20260504120138 59 229 0.0 3.5 0.00 0.03 0.02 82 1007.1
20260504081526 61 58 0.0 1.7 0.00 0.03 0.02 77 1007.6
20260504044555 63 236 0.9 4.3 0.01 0.01 0.01 67 1007.4
20260504043058 64 200 0.0 3.5 0.01 0.01 0.01 68 1007.0
20260504041549 66 177 0.9 4.3 0.00 0.00 0.00 58 1008.1
20260504040100 66 190 1.7 7.0 0.00 0.00 0.00 55 1007.8
20260504034547 66 197 1.7 6.1 0.00 0.00 0.00 54 1008.2
20260504033049 67 207 0.9 7.0 0.00 0.00 0.00 53 1008.4
20260504031555 68 160 1.7 5.2 0.00 0.00 0.00 52 1008.5
20260504030045 67 204 0.9 2.6 0.00 0.00 0.00 53 1008.6
20260504024545 67 170 0.0 2.6 0.00 0.00 0.00 54 1008.5
20260504023043 67 212 0.0 2.6 0.00 0.00 0.00 54 1008.5
20260504021543 67 204 0.0 1.7 0.00 0.00 0.00 54 1008.4
20260504020050 68 214 0.0 0.9 0.00 0.00 0.00 52 1008.1
20260504014544 68 107 0.0 2.6 0.00 0.00 0.00 52 1008.0
20260504013043 69 228 0.0 1.7 0.00 0.00 0.00 50 1007.9
20260504011542 70 266 0.0 0.9 0.00 0.00 0.00 48 1007.8
20260504010040 71 172 0.0 1.7 0.00 0.00 0.00 46 1007.8
20260504004539 72 213 0.0 2.6 0.00 0.00 0.00 45 1007.8
20260504003038 72 213 0.0 2.6 0.00 0.00 0.00 45 1007.9
20260504001547 73 221 0.0 3.5 0.00 0.00 0.00 43 1007.9
20260504000036 74 281 0.0 5.2 0.00 0.00 0.00 42 1007.9
20260503234549 74 197 0.9 3.5 0.00 0.00 0.00 41 1007.9
20260503233038 75 217 0.9 3.5 0.00 0.00 0.00 40 1008.1
20260503231534 76 231 1.7 7.0 0.00 0.00 0.00 39 1008.3
20260503230028 77 277 0.9 5.2 0.00 0.00 0.00 39 1008.4
20260503224526 76 252 3.5 9.6 0.00 0.00 0.00 38 1008.6
20260503223023 76 212 3.5 11.3 0.00 0.00 0.00 36 1008.6
20260503221527 76 236 2.6 9.6 0.00 0.00 0.00 38 1008.8
20260503220020 76 238 3.5 7.8 0.00 0.00 0.00 38 1008.9
20260503214517 76 173 3.5 10.4 0.00 0.00 0.00 38 1009.2
20260503213014 75 263 3.5 9.6 0.00 0.00 0.00 38 1009.4
20260503211512 75 204 3.5 13.0 0.00 0.00 0.00 40 1009.4
20260503210010 74 218 5.2 13.0 0.00 0.00 0.00 38 1009.6
20260503204507 74 203 2.6 8.7 0.00 0.00 0.00 39 1009.9
20260503203004 74 201 3.5 7.8 0.00 0.00 0.00 40 1010.4
20260503201601 73 200 3.5 8.7 0.00 0.00 0.00 41 1010.8
20260503200058 73 170 1.7 12.2 0.00 0.00 0.00 44 1011.2
20260503194559 73 201 2.6 9.6 0.00 0.00 0.00 41 1011.5
20260503193050 72 208 2.6 9.6 0.00 0.00 0.00 42 1011.9
20260503191552 71 184 3.5 11.3 0.00 0.00 0.00 40 1012.4
20260503190043 70 207 2.6 11.3 0.00 0.00 0.00 43 1012.7
20260503184540 70 225 1.7 7.8 0.00 0.00 0.00 41 1013.2
20260503183036 69 198 1.7 9.6 0.00 0.00 0.00 45 1013.6
20260503181534 69 165 2.6 7.8 0.00 0.00 0.00 44 1014.2